STARLINK-35573, 66116

Orbit data source: Space-Track

STARLINK-35573, 66116 is a payload satellite owned by SpaceX/Seattle (US) in LEO that was launched on Wed, 22 Oct 2025 UTC via an FALCON 9 launch vehicle from the Air Force Western Test Range (AFWTR). Payload-class satellites include a variety of spacecraft equipped with specific instruments for various scientific and technological missions. These include communications satellites like Starlink; space stations such as the ISS; scientific satellites like the Hubble; Earth observation satellites from companies like Planet Labs, Umbra, and HawkEye 360; GPS; miniature CubeSats for education and research; and military/defense satellites.

Loading next visibility...
Identifier
66116, 2025-237C
Orbit
LEO
Country
Flag of USUS
Related business
Manufacturer
SpaceX/Seattle
Mission
Operational Commercial Communications
Bus & Motor
STARLINK V2MO, Unknown motor
Mass
575 kg wet, ~530 kg dry
Launch date (UTC)
2025-10-22 (8 months ago)
Launch vehicle
FALCON 9
Launch site
Air Force Western Test Range (AFWTR)
Object type
Payload
Rocket body
Debris
Shape & HBR
Box + 2 Pan, 17.7 m
Radar Cross Section
36.964 m², Large (>1 m²)

Expand to show TLE details & history
Last TLE update: 1 day ago

TLE from 1 day ago
0 STARLINK-35573
1 66116U 25237C   26170.69252143  .00024767  00000-0  74124-3 0  9994
2 66116  53.1591 285.4076 0001090  81.2094 278.9032 15.34420218 38239
Epoch: 2026-06-19T16:37Z
TLE epoch observation values (Epoch: 2026-06-19T16:37:13.851Z)
Latitude
-0.00003°
Longitude
128.18202°
Altitude
463.429 km
Speed
7.636 km/s
True Right ascension
19h 01m 37s
True Declination
0° 00' 00"
Sunlit
Object was in full shadow at epoch
Visualization orbit readout
Latitude
Unknown
Longitude
Unknown
Altitude
Unknown
Speed
Unknown
Apparent Right ascension
Unknown
Apparent Declination
Unknown
Sunlit
N/A
Visualization observer readout
Local Sidereal Time
07:24:30
Azimuth
Unknown
Elevation
Unknown
Doppler factor
Unknown
Orbital elements
Apogee altitude
463.646 km
Perigee altitude
462.155 km
Semi-major axis
6,841.037 km
Eccentricity
0.00011
Inclination
53.1591°
RAAN
285.4076°
Arg. of periapsis
81.2094°
True anomaly
278.89086°
Mean anomaly
278.9032°
Eccentric anomaly
278.89703°
Mean motion
3.83584 °/min
Orbital period
93.85 mins
BSTAR
0.00074124
Loading maneuver chart data...
Computing Atmospheric mass density...
Loading historical data...
Loading historical data...
Loading historical data...
Loading historical data...
Loading historical data...
Loading historical data...
Loading historical data...

Documentation

Showing up to 5 results
|